K2MIT Weather Reports


time (UTC)temp
C
wind
direction
speed
KPH
gust
KPH
rain 1hr
cm
rain 24hr
cm
rain mn
cm
humidity
%
barometer
mb
20260506231537 15 0 0.0 0.0 0.00 0.23 0.23 91 1007.2
20260506230035 15 0 0.0 0.0 0.00 0.23 0.23 91 1007.1
20260506224534 15 0 0.0 0.0 0.00 0.23 0.23 91 1006.9
20260506223031 15 0 0.0 0.0 0.00 0.23 0.23 91 1006.9
20260506221530 15 0 0.0 0.0 0.00 0.23 0.23 91 1006.8
20260506220030 15 0 0.0 0.0 0.00 0.23 0.23 91 1006.7
20260506214535 15 0 0.0 0.0 0.00 0.23 0.23 90 1006.7
20260506213034 15 153 0.0 6.4 0.00 0.23 0.23 90 1006.5
20260506211536 15 0 1.6 8.0 0.00 0.23 0.23 90 1006.7
20260506210035 15 141 1.6 8.0 0.03 0.23 0.23 90 1006.4
20260506204536 15 116 1.6 6.4 0.05 0.23 0.23 90 1006.2
20260506203057 15 201 1.6 12.9 0.05 0.23 0.23 89 1006.3
20260506201534 15 251 4.8 12.9 0.08 0.23 0.23 90 1006.6
20260506200044 14 242 3.2 11.3 0.05 0.20 0.20 90 1006.8
20260506194532 14 111 0.0 6.4 0.03 0.18 0.18 89 1007.1
20260506193030 14 0 1.6 6.4 0.03 0.18 0.18 89 1007.3
20260506191535 15 159 3.2 8.0 0.00 0.15 0.15 88 1007.2
20260506190044 15 102 1.6 14.5 0.03 0.15 0.15 88 1007.1
20260506184533 15 133 1.6 8.0 0.03 0.15 0.15 88 1007.3
20260506183036 15 126 3.2 8.0 0.08 0.15 0.15 88 1007.4
20260506181534 15 229 1.6 12.9 0.08 0.15 0.15 89 1007.7
20260506180036 15 229 3.2 8.0 0.08 0.13 0.13 88 1007.9
20260506174534 14 216 4.8 14.5 0.10 0.13 0.13 87 1007.7
20260506173037 15 209 1.6 9.7 0.08 0.08 0.08 87 1007.7
20260506171535 15 154 1.6 12.9 0.08 0.08 0.08 86 1008.1
20260506170032 15 169 4.8 14.5 0.05 0.05 0.05 85 1008.4
20260506164538 15 155 1.6 11.3 0.03 0.03 0.03 83 1008.5
20260506163053 16 149 4.8 12.9 0.00 0.00 0.00 79 1009.0
20260506161530 16 165 3.2 17.7 0.00 0.00 0.00 76 1009.5
20260506160030 16 122 4.8 14.5 0.00 0.00 0.00 76 1009.0
20260506154541 16 153 4.8 11.3 0.00 0.00 0.00 75 1009.2
20260506153034 17 171 1.6 9.7 0.00 0.00 0.00 73 1009.4
20260506151540 18 159 1.6 11.3 0.00 0.00 0.00 71 1009.5
20260506150038 18 147 3.2 11.3 0.00 0.00 0.00 69 1009.4
20260506144530 18 266 3.2 11.3 0.00 0.00 0.00 71 1009.2
20260506143034 17 128 4.8 14.5 0.00 0.00 0.00 71 1009.3
20260506141533 17 226 6.4 16.1 0.00 0.00 0.00 72 1009.3
20260506140036 17 163 6.4 16.1 0.00 0.00 0.00 71 1009.5
20260506134532 18 123 4.8 17.7 0.00 0.00 0.00 72 1009.3
20260506133029 17 221 3.2 16.1 0.00 0.00 0.00 75 1009.6
20260506131537 17 192 4.8 12.9 0.00 0.00 0.00 75 1009.4
20260506130038 16 198 3.2 14.5 0.00 0.00 0.00 77 1009.3
20260506124534 16 109 1.6 8.0 0.00 0.00 0.00 77 1009.2
20260506123034 16 171 3.2 8.0 0.00 0.00 0.00 77 1009.4
20260506121530 16 178 1.6 9.7 0.00 0.00 0.00 77 1009.7
20260506120039 16 248 4.8 11.3 0.00 0.00 0.00 79 1010.0
20260506114535 15 115 1.6 6.4 0.00 0.00 0.00 81 1010.0
20260506113035 15 184 0.0 8.0 0.00 0.00 0.00 85 1010.0
20260506111535 13 0 0.0 3.2 0.00 0.00 0.00 87 1009.8
20260506110032 13 134 0.0 6.4 0.00 0.00 0.00 87 1009.9
20260506104532 13 231 3.2 9.7 0.00 0.00 0.00 87 1009.9
20260506103034 13 0 0.0 8.0 0.00 0.00 0.00 87 1009.7
20260506101534 12 165 1.6 9.7 0.00 0.00 0.00 87 1009.5
20260506100037 12 150 1.6 6.4 0.00 0.00 0.00 87 1009.7
20260506094532 12 0 0.0 4.8 0.00 0.00 0.00 86 1009.6
20260506093033 12 186 1.6 11.3 0.00 0.00 0.00 86 1009.5
20260506091535 13 184 1.6 8.0 0.00 0.00 0.00 86 1009.6
20260506090030 13 161 1.6 4.8 0.00 0.00 0.00 86 1009.4
20260506084537 13 148 1.6 8.0 0.00 0.00 0.00 86 1009.8
20260506083035 13 0 1.6 8.0 0.00 0.00 0.00 85 1009.8
20260506081540 13 0 1.6 6.4 0.00 0.00 0.00 85 1009.9
20260506073034 13 200 1.6 8.0 0.00 0.00 0.00 84 1009.9
20260506071535 13 0 3.2 11.3 0.00 0.00 0.00 84 1010.2
20260506061531 13 148 1.6 6.4 0.00 0.00 0.00 81 1010.0
20260506044538 15 122 0.0 4.8 0.00 0.00 0.00 72 1010.5
20260506043030 16 135 1.6 6.4 0.00 0.00 0.00 71 1010.4
20260506041544 16 0 0.0 8.0 0.00 0.00 0.00 69 1010.3
20260506040035 16 205 3.2 11.3 0.00 0.00 0.00 68 1010.3
20260506034547 17 130 4.8 17.7 0.00 0.00 0.00 66 1010.4
20260506033035 17 205 8.0 17.7 0.00 0.00 0.00 65 1010.4
20260506031532 17 244 4.8 20.9 0.00 0.00 0.00 64 1010.1
20260506030038 17 186 6.4 16.1 0.00 0.00 0.00 63 1010.1
20260506024533 17 175 8.0 16.1 0.00 0.00 0.00 63 1010.2
20260506023034 17 184 6.4 17.7 0.00 0.00 0.00 63 1010.2
20260506021533 18 148 6.4 20.9 0.00 0.00 0.00 63 1010.1
20260506020030 18 216 8.0 25.7 0.00 0.00 0.00 62 1010.2
20260506014529 18 212 6.4 16.1 0.00 0.00 0.00 62 1010.0
20260506013048 18 219 9.7 25.7 0.00 0.00 0.00 62 1009.7
20260506011531 18 142 9.7 27.4 0.00 0.00 0.00 63 1009.6
20260506010035 18 285 3.2 17.7 0.00 0.00 0.00 63 1009.4
20260506004530 18 244 9.7 25.7 0.00 0.00 0.00 62 1009.3
20260506003032 18 171 6.4 25.7 0.00 0.00 0.00 63 1009.1
20260506001533 17 244 4.8 11.3 0.00 0.00 0.00 65 1008.8
20260506000033 18 143 1.6 9.7 0.00 0.00 0.00 64 1008.8
20260505234532 18 196 1.6 12.9 0.00 0.00 0.00 63 1008.6
20260505233031 19 205 3.2 19.3 0.00 0.00 0.00 61 1008.3